When you browse on this site, cookies collect data to enhance your experience and personalize the content and advertising you see.
Visit our Privacy Policy to learn more. By continuing to use the site, you agree to this use of cookies and data.
  • In Österreich
  • Länderverzeichnis
  • Für 7 Tage
  • Wassertemperatur
  • Wetterkarte
  • News
  • Widgets
  • user-avatar
    Anmelden

    Stündliche Wetter Zastinka

    Heute, 23 August, Freitag

    Zeit Temperatur Niederschläge Wind Luftdruck Luftfeuchtigkeit
    00:00 +16°C° 0 mm 2 m/S 743 mmHg 90%
    01:00 +16°C° 0 mm 2 m/S 743 mmHg 91%
    02:00 +16°C° 0 mm 3 m/S 743 mmHg 93%
    03:00 +16°C° 0 mm 3 m/S 743 mmHg 94%
    04:00 +15°C° 0 mm 2 m/S 743 mmHg 94%
    05:00 +15°C° 0 mm 2 m/S 742 mmHg 95%
    06:00 +16°C° 0 mm 3 m/S 743 mmHg 91%
    07:00 +17°C° 0 mm 3 m/S 743 mmHg 87%
    08:00 +18°C° 0 mm 3 m/S 743 mmHg 83%
    09:00 +20°C° 0 mm 3 m/S 743 mmHg 76%
    10:00 +21°C° 0 mm 3 m/S 743 mmHg 69%
    11:00 +24°C° 0 mm 3 m/S 743 mmHg 62%
    12:00 +24°C° 0 mm 3 m/S 743 mmHg 60%
    13:00 +25°C° 0 mm 4 m/S 743 mmHg 58%
    14:00 +26°C° 0 mm 4 m/S 742 mmHg 55%
    15:00 +25°C° 0 mm 4 m/S 742 mmHg 57%
    16:00 +25°C° 0 mm 4 m/S 742 mmHg 58%
    17:00 +25°C° 0 mm 4 m/S 742 mmHg 60%
    18:00 +22°C° 0 mm 3 m/S 742 mmHg 65%
    19:00 +21°C° 0 mm 3 m/S 742 mmHg 70%
    20:00 +19°C° 0 mm 3 m/S 742 mmHg 75%
    21:00 +18°C° 0 mm 3 m/S 742 mmHg 76%
    22:00 +18°C° 0 mm 3 m/S 742 mmHg 78%
    23:00 +17°C° 0 mm 3 m/S 742 mmHg 79%

    Morgen, 24 August, Samstag

    Zeit Temperatur Niederschläge Wind Luftdruck Luftfeuchtigkeit
    00:00 +17°C° 0 mm 3 m/S 742 mmHg 78%
    01:00 +16°C° 0 mm 3 m/S 742 mmHg 77%
    02:00 +16°C° 0 mm 3 m/S 742 mmHg 77%
    03:00 +15°C° 0 mm 2 m/S 742 mmHg 77%
    04:00 +15°C° 0 mm 2 m/S 742 mmHg 76%
    05:00 +15°C° 0 mm 2 m/S 742 mmHg 76%
    06:00 +16°C° 0 mm 3 m/S 742 mmHg 75%
    07:00 +17°C° 0 mm 3 m/S 742 mmHg 74%
    08:00 +18°C° 0 mm 3 m/S 742 mmHg 73%
    09:00 +20°C° 0 mm 3 m/S 742 mmHg 67%
    10:00 +21°C° 0 mm 3 m/S 742 mmHg 62%
    11:00 +24°C° 0 mm 3 m/S 742 mmHg 56%
    12:00 +24°C° 0 mm 3 m/S 742 mmHg 54%
    13:00 +25°C° 0 mm 3 m/S 742 mmHg 51%
    14:00 +25°C° 0 mm 4 m/S 741 mmHg 49%
    15:00 +25°C° 0 mm 4 m/S 741 mmHg 50%
    16:00 +25°C° 0 mm 3 m/S 741 mmHg 52%
    17:00 +25°C° 0 mm 3 m/S 741 mmHg 54%
    18:00 +22°C° 0 mm 3 m/S 741 mmHg 57%
    19:00 +20°C° 0 mm 3 m/S 741 mmHg 61%
    20:00 +18°C° 0 mm 3 m/S 741 mmHg 65%
    21:00 +18°C° 0 mm 3 m/S 741 mmHg 65%
    22:00 +17°C° 0 mm 3 m/S 741 mmHg 66%
    23:00 +17°C° 0 mm 3 m/S 741 mmHg 66%

    übermorgen, 25 August, Sonntag

    Zeit Temperatur Niederschläge Wind Luftdruck Luftfeuchtigkeit
    00:00 +16°C° 0 mm 3 m/S 741 mmHg 67%
    01:00 +16°C° 0 mm 3 m/S 741 mmHg 67%
    02:00 +14°C° 0 mm 3 m/S 741 mmHg 67%
    03:00 +14°C° 0 mm 3 m/S 741 mmHg 68%
    04:00 +14°C° 0 mm 3 m/S 741 mmHg 69%
    05:00 +15°C° 0 mm 2 m/S 740 mmHg 70%
    06:00 +16°C° 0 mm 3 m/S 741 mmHg 68%
    07:00 +17°C° 0 mm 3 m/S 741 mmHg 66%
    08:00 +18°C° 0 mm 3 m/S 741 mmHg 65%
    09:00 +20°C° 0 mm 3 m/S 741 mmHg 60%
    10:00 +22°C° 0 mm 3 m/S 741 mmHg 56%
    11:00 +25°C° 0 mm 4 m/S 741 mmHg 51%
    12:00 +26°C° 0 mm 4 m/S 741 mmHg 49%
    13:00 +26°C° 0 mm 4 m/S 741 mmHg 47%
    14:00 +27°C° 0 mm 3 m/S 741 mmHg 44%
    15:00 +27°C° 0 mm 3 m/S 740 mmHg 47%
    16:00 +26°C° 0 mm 3 m/S 740 mmHg 49%
    17:00 +26°C° 0 mm 3 m/S 740 mmHg 51%
    18:00 +24°C° 0 mm 3 m/S 740 mmHg 57%
    19:00 +21°C° 0 mm 4 m/S 740 mmHg 62%
    20:00 +19°C° 0 mm 4 m/S 740 mmHg 67%
    21:00 +18°C° 0 mm 4 m/S 740 mmHg 68%
    22:00 +18°C° 0 mm 3 m/S 740 mmHg 69%
    23:00 +17°C° 0 mm 3 m/S 741 mmHg 69%

    26 August, Montag

    Zeit Temperatur Niederschläge Wind Luftdruck Luftfeuchtigkeit
    00:00 +17°C° 0 mm 3 m/S 740 mmHg 70%
    01:00 +16°C° 0 mm 3 m/S 740 mmHg 71%
    02:00 +16°C° 0 mm 3 m/S 740 mmHg 72%
    03:00 +14°C° 0 mm 3 m/S 740 mmHg 72%
    04:00 +14°C° 0 mm 3 m/S 740 mmHg 72%
    05:00 +14°C° 0 mm 3 m/S 740 mmHg 72%
    06:00 +16°C° 0 mm 3 m/S 740 mmHg 70%
    07:00 +17°C° 0 mm 3 m/S 740 mmHg 68%
    08:00 +19°C° 0 mm 3 m/S 740 mmHg 66%
    09:00 +21°C° 0 mm 3 m/S 740 mmHg 61%
    10:00 +23°C° 0 mm 4 m/S 741 mmHg 56%
    11:00 +26°C° 0 mm 4 m/S 741 mmHg 51%
    12:00 +26°C° 0 mm 4 m/S 740 mmHg 48%
    13:00 +27°C° 0 mm 4 m/S 740 mmHg 46%
    14:00 +28°C° 0 mm 4 m/S 740 mmHg 43%
    15:00 +28°C° 0 mm 4 m/S 740 mmHg 46%
    16:00 +27°C° 0 mm 3 m/S 739 mmHg 49%
    17:00 +27°C° 0 mm 3 m/S 739 mmHg 51%
    18:00 +25°C° 0 mm 3 m/S 739 mmHg 57%
    19:00 +22°C° 0 mm 3 m/S 739 mmHg 62%
    20:00 +20°C° 0 mm 3 m/S 739 mmHg 68%
    21:00 +20°C° 0 mm 3 m/S 739 mmHg 70%
    22:00 +19°C° 0 mm 3 m/S 739 mmHg 72%
    23:00 +18°C° 0 mm 3 m/S 739 mmHg 74%

    27 August, Dienstag

    Zeit Temperatur Niederschläge Wind Luftdruck Luftfeuchtigkeit
    00:00 +18°C° 0 mm 3 m/S 739 mmHg 76%
    01:00 +17°C° 0 mm 3 m/S 739 mmHg 77%
    02:00 +17°C° 0 mm 3 m/S 739 mmHg 79%
    03:00 +17°C° 0 mm 3 m/S 739 mmHg 80%
    04:00 +16°C° 0 mm 3 m/S 739 mmHg 81%
    05:00 +16°C° 0 mm 2 m/S 738 mmHg 82%
    06:00 +17°C° 0 mm 3 m/S 739 mmHg 77%
    07:00 +19°C° 0 mm 3 m/S 739 mmHg 73%
    08:00 +20°C° 0 mm 3 m/S 739 mmHg 68%
    09:00 +23°C° 0 mm 2 m/S 739 mmHg 61%
    10:00 +25°C° 0 mm 2 m/S 739 mmHg 54%
    11:00 +27°C° 0 mm 2 m/S 739 mmHg 48%
    12:00 +28°C° 0 mm 2 m/S 739 mmHg 44%
    13:00 +29°C° 0 mm 2 m/S 739 mmHg 41%
    14:00 +30°C° 0 mm 2 m/S 739 mmHg 38%
    15:00 +29°C° 0 mm 2 m/S 739 mmHg 39%
    16:00 +29°C° 0 mm 2 m/S 738 mmHg 41%
    17:00 +29°C° 0 mm 1 m/S 738 mmHg 42%
    18:00 +27°C° 0 mm 2 m/S 738 mmHg 48%
    19:00 +25°C° 0 mm 2 m/S 738 mmHg 53%
    20:00 +22°C° 0 mm 3 m/S 738 mmHg 59%
    21:00 +21°C° 0 mm 3 m/S 739 mmHg 64%
    22:00 +20°C° 0 mm 3 m/S 739 mmHg 69%
    23:00 +19°C° 0 mm 3 m/S 739 mmHg 75%

    28 August, Mittwoch

    Zeit Temperatur Niederschläge Wind Luftdruck Luftfeuchtigkeit
    00:00 +19°C° 0 mm 3 m/S 739 mmHg 76%
    01:00 +18°C° 0 mm 2 m/S 739 mmHg 78%
    02:00 +18°C° 0 mm 2 m/S 739 mmHg 79%
    03:00 +17°C° 0 mm 2 m/S 739 mmHg 79%
    04:00 +17°C° 0 mm 2 m/S 739 mmHg 79%
    05:00 +17°C° 0 mm 2 m/S 739 mmHg 79%
    06:00 +18°C° 0 mm 2 m/S 739 mmHg 75%
    07:00 +20°C° 0 mm 3 m/S 739 mmHg 71%
    08:00 +21°C° 0 mm 3 m/S 739 mmHg 68%
    09:00 +24°C° 0 mm 3 m/S 740 mmHg 62%
    10:00 +25°C° 0 mm 3 m/S 740 mmHg 57%
    11:00 +27°C° 0 mm 3 m/S 740 mmHg 51%
    12:00 +28°C° 0 mm 3 m/S 739 mmHg 49%
    13:00 +28°C° 0 mm 3 m/S 739 mmHg 47%
    14:00 +29°C° 0 mm 3 m/S 739 mmHg 44%
    15:00 +28°C° 0 mm 3 m/S 739 mmHg 46%
    16:00 +28°C° 0 mm 3 m/S 738 mmHg 48%
    17:00 +28°C° 0 mm 3 m/S 738 mmHg 50%
    18:00 +26°C° 0 mm 4 m/S 738 mmHg 57%
    19:00 +23°C° 0 mm 4 m/S 738 mmHg 64%
    20:00 +21°C° 0 mm 4 m/S 738 mmHg 70%
    21:00 +20°C° 0 mm 4 m/S 738 mmHg 74%
    22:00 +19°C° 0 mm 4 m/S 738 mmHg 77%
    23:00 +18°C° 0 mm 4 m/S 738 mmHg 81%
    Mehr zeigen